Location: Tehachapi Municipal Airport
(35.1300°N, 118.4400°W)
Time: 02:23:15
(UTC-07:00)

BREEZE M DEB (TANK) - Visible Passes

Search period start: 30 March 2015 00:00
Search period end: 09 April 2015 00:00
Orbit: 286 x 12148 km, 49.5° (Epoch: 27 March)

Date Brightness Start Highest point End Pass type
(mag) Time Alt. Az. Time Alt. Az. Time Alt. Az.
30 Mar 8.4 01:15:14 10° WSW 02:31:57 69° N 03:51:02 10° E visible
30 Mar 7.9 05:59:57 10° NW 07:39:41 76° SW 08:03:05 10° SSE visible
30 Mar 7.5 20:33:28 10° S 20:59:25 49° ESE 22:30:12 10° NE visible
31 Mar 8.2 00:38:33 10° WSW 01:44:24 71° NNW 03:13:35 10° E visible
31 Mar 8.1 05:17:51 10° WNW 07:02:20 84° SW 07:28:34 10° SE visible
31 Mar 7.5 20:00:18 10° SSE 20:24:13 41° ESE 21:47:49 10° NE visible
01 Apr 8.1 00:02:18 10° WSW 00:58:17 75° NNW 02:35:33 10° ENE visible
01 Apr 8.2 04:36:18 10° WNW 06:23:49 89° NE 06:53:44 10° SE visible
01 Apr 7.5 19:27:39 10° SSE 19:49:25 33° E 21:04:19 10° NE visible
01 Apr 8.0 23:26:25 10° SW 00:14:04 80° NNW 01:56:55 10° ENE visible
02 Apr 8.4 03:55:23 10° WNW 05:43:53 82° NNE 06:18:33 10° SE visible
02 Apr 7.5 18:55:55 10° SE 19:14:53 25° E 20:19:14 10° NE visible
02 Apr 7.9 22:50:50 10° SW 23:31:44 86° NW 01:17:38 10° ENE visible
03 Apr 8.6 03:15:07 10° WNW 05:02:14 77° NNE 05:43:02 10° ESE visible
03 Apr 7.6 18:25:54 10° ESE 18:40:34 18° E 19:31:35 10° NE visible
03 Apr 7.8 22:15:32 10° SW 22:51:06 88° SE 00:37:42 10° ENE visible
04 Apr 8.7 02:35:32 10° W 04:18:37 73° NNE 05:07:04 10° ESE visible
04 Apr 7.7 21:40:30 10° SSW 22:11:52 80° SE 23:57:07 10° ENE visible
05 Apr 8.7 01:56:36 10° W 03:32:51 70° NNE 04:30:41 10° ESE visible
05 Apr 7.6 21:05:41 10° SSW 21:33:49 72° SE 23:15:53 10° NE visible
06 Apr 8.6 01:18:17 10° W 02:45:10 68° N 03:53:47 10° E visible
06 Apr 7.8 06:04:54 10° NW 07:38:35 60° WSW 08:01:53 10° S visible
06 Apr 7.5 20:31:07 10° SSW 20:56:43 63° ESE 22:33:59 10° NE visible
07 Apr 8.5 00:40:30 10° W 01:56:23 68° N 03:16:20 10° E visible
07 Apr 7.9 05:22:22 10° NW 07:01:55 69° WSW 07:27:23 10° SSE visible
07 Apr 7.4 19:56:48 10° S 20:20:22 54° ESE 21:51:23 10° NE visible
08 Apr 8.4 00:03:13 10° WSW 01:07:50 70° N 02:38:15 10° E visible
08 Apr 8.0 04:40:19 10° WNW 06:24:14 78° SW 06:52:32 10° SSE visible
08 Apr 7.4 19:22:49 10° S 19:44:37 45° ESE 21:08:02 10° NE visible
